Regional Weather Roundup
Issued by NWS

Home | Current Version | Previous Version | Graphics & Text | Print | Product List | Glossary On
Versions: 1 2 3 4 5 6 7 8 9 10 11 12 13 14 15 16 17 18 19 20 21 22 23 24 25 26 27 28 29 30 31 32 33 34 35 36 37 38 39 40 41 42 43 44 45 46 47 48 49 50
108
ASUS45 KABQ 251701
RWRNM
NEW MEXICO REGIONAL WEATHER ROUNDUP
NATIONAL WEATHER SERVICE ALBUQUERQUE NM
1100 AM MDT THU AUG 25 2016

NOTE: "FAIR" MEANS FEW OR NO CLOUDS BELOW 12,000 FEET AGL WITH NO
       SIGNIFICANT WEATHER OR OBSTRUCTIONS TO VISION.

      THIS PRODUCT IS RELEASED AS TWO VERSIONS.  ONE VERSION NEAR
      THE TOP OF THE HOUR CONTAINING PRELIMINARY DATA FROM ALBUQUERQUE
      AND OTHER STATIONS.  A FINAL VERSION WITH ADDITIONAL DATA IS
      ISSUED ABOUT 10 MINUTES AFTER THE HOUR.

NMZ501-503-504-510>518-251800-
NORTHWEST PLATEAU/NORTHCENTRAL MOUNTAINS

CITY           SKY/WX    TMP DP  RH WIND       PRES   REMARKS
FARMINGTON     FAIR      71  45  39 E9        30.24S
LOS ALAMOS     FAIR      62  48  61 E3        30.37F
SANTA FE       FAIR      69  46  43 VRB3      30.32S
TAOS           FAIR      63  45  51 CALM      30.37F
ANGEL FIRE     FAIR      56  49  79 CALM      30.43F

$$
NMZ402-403-502-505>509-251800-
WESTCENTRAL MOUNTAINS/SOUTHWEST MOUNTAINS

CITY           SKY/WX    TMP DP  RH WIND       PRES   REMARKS
GALLUP         FAIR      71  43  36 VRB6      30.30F
GRANTS         FAIR      72  42  33 SE9       30.34S
SILVER CITY    FAIR      77  48  35 CALM      30.25S

$$
NMZ407-409-411-412-251800-
SOUTHERN DESERTS

CITY           SKY/WX    TMP DP  RH WIND       PRES   REMARKS
DEMING         FAIR      81  51  35 E8        30.18S
LAS CRUCES     FAIR      79  48  33 E6        30.21R
HOLLOMAN AFB   FAIR      74  56  54 VRB2      30.17F
ALAMOGORDO     FAIR      75  52  43 S3        30.20S
T OR C         FAIR      77  49  37 VRB3      30.22S

$$
NMZ519>523-251800-
CENTRAL VALLEYS/CENTRAL HIGHLANDS

CITY           SKY/WX    TMP DP  RH WIND       PRES   REMARKS
ALBUQUERQUE    PTSUNNY   71  49  45 VRB5      30.27S
DOUBLE EAGLE   PTSUNNY   70  46  43 CALM      30.30S
MORIARTY ARPT  FAIR      65  49  55 CALM      30.34S
CLINES CORNERS FAIR      65  48  54 SW3       30.36S
BELEN          FAIR      71  45  38 CALM      30.26F
SOCORRO        FAIR      74  46  36 CALM      30.24S

$$
NMZ524>526-539-540-251800-
SOUTHCENTRAL MOUNTAINS

CITY           SKY/WX    TMP DP  RH WIND       PRES   REMARKS
RUIDOSO        NOT AVBL

$$
NMZ527>531-251800-
NORTHEAST HIGHLANDS/NORTHEAST PLAINS

CITY           SKY/WX    TMP DP  RH WIND       PRES   REMARKS
LAS VEGAS      FAIR      65  48  54 VRB5      30.35F
RATON          FAIR      67  46  47 VRB3      30.31S
CLAYTON        FAIR      69  54  58 NE7       30.27S

$$
NMZ532>537-251800-
EASTCENTRAL PLAINS

CITY           SKY/WX    TMP DP  RH WIND       PRES   REMARKS
TUCUMCARI      FAIR      70  58  65 E8        30.22F
CANNON AFB     FAIR      72  59  63 VRB3      30.22F
CLOVIS AIRPORT FAIR      72  57  60 CALM      30.22F

$$
NMZ028-029-538-251800-
SOUTHEAST PLAINS

CITY           SKY/WX    TMP DP  RH WIND       PRES   REMARKS
ROSWELL        FAIR      75  60  59 N9        30.18F
ARTESIA        FAIR      73  64  73 N12G18    30.19S
CARLSBAD       FAIR      72  63  73 NW16      30.17R
HOBBS          PTSUNNY   72  72 100 S5        30.20R


$$




USA.gov is the U.S. government's official web portal to all federal, state and local government web resources and services.